User: anonymous   Login
Location: Unspecified
(0.0000°N, 0.0000°E)
Time: 10:09:35
(UTC+00:00)
Language:

EGYPTSAT 1 - Orbit

View from above orbital plane
View from above orbital plane
View from above satellite
View from above satellite

Ground track
Ground track

The orbit data is extracted from the following two-line orbital elements,

1 31117U 07012A   19084.16741719  .00000089  00000-0  21127-4 0  9995
2 31117  97.7149  71.5607 0005008 341.4666  18.6357 14.72889781641030
Epoch (UTC): 25 March 2019 04:01:04
Eccentricity: 0.0005008
inclination: 97.7149°
perigee height: 648 km
apogee height: 655 km
right ascension of ascending node: 71.5607°
argument of perigee: 341.4666°
revolutions per day: 14.72889781
mean anomaly at epoch: 18.6357°
orbit number at epoch: 64103

The dashed part of the orbit path shows where the satellite is in the earth's shadow,  

DLR